Preview of NWS' New Version of Forecast
This preview is not operational and should not be used for support decisions.

Regional Weather Roundup (RWR)

Issued by National Weather Service (NWS)

                            
000
ASCA42 TJSJ 180410
RWRPR 
PUERTO RICO/U.S. VIRGIN ISLANDS HOURLY WEATHER ROUNDUP
NATIONAL WEATHER SERVICE SAN JUAN PR
1200 AM AST MON MAR 18 2019

PRZ001>002-007>008-010-180500-
PUERTO RICO
  
CITY           SKY/WX    TMP DP  RH WIND       PRES   REMARKS
SAN JUAN LMM   PTCLDY    77  68  73 CALM      30.04F                  
AGUADILLA      CLOUDY    72  70  94 CALM      30.05S                  
$$

VIZ001>002-180500-
U.S. VIRGIN ISLANDS
  
CITY           SKY/WX    TMP DP  RH WIND       PRES   REMARKS
CHARLOTTE AMA  PTCLDY    79  70  73 E10       30.04F                  
CHRISTIANSTED  MOCLDY    79  68  69 E13       30.05S                  
$$

HOURLY WEATHER ROUNDUP FOR THE NEWS MEDIA
  
CITY           SKY/WX    TMP DP  RH WIND       PRES   REMARKS
ORLANDO        CLOUDY    59  51  75 N7        30.13S                  
NEW YORK       FAIR      34  13  41 N10       30.25R WCI  26          
NEWARK         FAIR      33  12  41 N8        30.24R WCI  26          
CHICAGO        MOCLDY    37  21  52 W5        30.28R WCI  33          
HARTFORD       FAIR      31  10  41 NW9G20    30.19R WCI  23          
BOSTON         FAIR      33   8  35 W12       30.18R WCI  24          
DALLAS         PTCLDY    55  33  43 E3        30.29R                  
PHILADELPHIA   FAIR      37  13  37 CALM      30.23R                  
LOS ANGELES    CLEAR     66  46  48 W5        29.95R                  
WASHINGTON DC  CLOUDY    42  18  37 N5        30.23R